Weather History for Hutchinson, MN

Change the Weather History Date:

Saturday, April 27, 2013

  Actual Average Record
Temperature  
Mean Temperature 52 °F -  
Max Temperature 72 °F 63 °F 89 °F (1977)
Min Temperature 32 °F 40 °F 26 °F (2008)
Degree Days  
Heating Degree Days 13    
Growing Degree Days 2 (Base 50)    
Moisture  
Dew Point 36 °F    
Average Humidity 56    
Maximum Humidity 100    
Minimum Humidity 22    
Precipitation  
Precipitation 0.00 in - - ()
Sea Level Pressure  
Sea Level Pressure 30.04 in    
Wind  
Wind Speed 2 mph (South)    
Max Wind Speed 9 mph    
Max Gust Speed -    
Visibility 10 miles    
Events      
Averages and records for this station are not official NWS values.
T = Trace of Precipitation, MM = Missing Value Source: NWS Daily Summary

Daily Weather History Graph

Daily Weather History Graph

Search for Another Location

Airport:

Trip Planner

Search our weather history database for the weather conditions in past years. The results will help you decide how hot, cold, wet, or windy it might be!

Date:

Astronomy

Apr. 27, 2013 Rise Set
Actual Time 6:12 AM CDT 8:18 PM CDT
Civil Twilight 5:41 AM CDT 8:50 PM CDT
Nautical Twilight 5:01 AM CDT 9:29 PM CDT
Astronomical Twilight 4:18 AM CDT 10:13 PM CDT
Moon 10:53 PM CDT (4/27) 7:28 AM CDT (4/27)
Length of Visible Light 15h 09m
Length of Day
14h 05m
Waning Gibbous, 95% of the Moon is Illuminated
Apr 27
Waning Gibbous
May 2
Last Quarter
May 9
New
May 17
First Quarter
May 24
Full

Hourly Weather History & Observations

Time (CDT) Temp. Dew Point Humidity Pressure Visibility Wind Dir Wind Speed Gust Speed Precip Events Conditions
12:14 AM 42.6 °F 35.8 °F 77% 30.15 in 10.0 mi Calm Calm - N/A   Clear
12:34 AM 42.1 °F 37.2 °F 83% 30.15 in 10.0 mi Calm Calm - N/A   Clear
12:53 AM 41.5 °F 35.6 °F 79% 30.15 in 10.0 mi Calm Calm - N/A   Clear
1:14 AM 39.6 °F 35.4 °F 85% 30.16 in 10.0 mi Calm Calm - N/A   Clear
1:34 AM 37.9 °F 35.1 °F 89% 30.15 in 10.0 mi Calm Calm - N/A   Clear
1:54 AM 37.9 °F 34.2 °F 86% 30.15 in 10.0 mi Calm Calm - N/A   Clear
2:13 AM 38.3 °F 34.2 °F 85% 30.14 in 10.0 mi Calm Calm - N/A   Clear
2:34 AM 37.2 °F 34.0 °F 88% 30.14 in 10.0 mi Calm Calm - N/A   Clear
2:54 AM 37.6 °F 34.0 °F 87% 30.13 in 10.0 mi Calm Calm - N/A   Clear
3:13 AM 36.3 °F 34.2 °F 92% 30.13 in 10.0 mi Calm Calm - N/A   Clear
3:53 AM 35.2 °F 33.6 °F 94% 30.13 in 10.0 mi Calm Calm - N/A   Clear
4:14 AM 36.3 °F 33.4 °F 89% 30.13 in 10.0 mi Calm Calm - N/A   Clear
4:34 AM 34.2 °F 32.2 °F 92% 30.13 in 10.0 mi Calm Calm - N/A   Clear
4:53 AM 34.3 °F 32.9 °F 94% 30.12 in 10.0 mi Calm Calm - N/A   Clear
5:14 AM 35.1 °F 32.2 °F 89% 30.11 in 10.0 mi Calm Calm - N/A   Clear
5:34 AM 33.4 °F 31.6 °F 93% 30.11 in 10.0 mi Calm Calm - N/A   Clear
5:54 AM 33.3 °F 31.8 °F 94% 30.11 in 10.0 mi Calm Calm - N/A   Clear
6:14 AM 32.4 °F 31.1 °F 95% 30.11 in 10.0 mi Calm Calm - N/A   Clear
6:24 AM 32.4 °F 31.6 °F 97% 30.11 in 10.0 mi Calm Calm - N/A   Clear
6:45 AM 32.0 °F 32.0 °F 100% 30.11 in 10.0 mi Calm Calm - N/A   Clear
7:05 AM 33.8 °F 32.0 °F 93% 30.11 in 10.0 mi Calm Calm - N/A   Clear
7:25 AM 37.4 °F 35.6 °F 93% 30.11 in 10.0 mi Calm Calm - N/A   Clear
7:45 AM 41.0 °F 37.4 °F 87% 30.11 in 10.0 mi Calm Calm - N/A   Clear
8:05 AM 44.6 °F 37.4 °F 76% 30.11 in 10.0 mi Calm Calm - N/A   Clear
8:25 AM 48.2 °F 39.2 °F 71% 30.11 in 10.0 mi Calm Calm - N/A   Clear
8:50 AM - - N/A% 30.11 in 10.0 mi West 4.6 mph - N/A   Clear
8:54 AM 54.0 °F 38.8 °F 57% 30.11 in 10.0 mi WSW 3.5 mph - N/A   Clear
9:14 AM 56.3 °F 39.0 °F 52% 30.10 in 10.0 mi West 4.6 mph - N/A   Clear
9:34 AM 58.5 °F 38.1 °F 47% 30.11 in 10.0 mi West 4.6 mph - N/A   Clear
9:54 AM 59.9 °F 36.0 °F 41% 30.10 in 10.0 mi Calm Calm - N/A   Clear
10:14 AM 61.5 °F 36.1 °F 39% 30.10 in 10.0 mi Calm Calm - N/A   Clear
10:34 AM 63.0 °F 36.3 °F 37% 30.09 in 10.0 mi SSW 4.6 mph - N/A   Clear
10:54 AM 63.5 °F 36.7 °F 37% 30.09 in 10.0 mi SSW 4.6 mph - N/A   Clear
11:14 AM 63.9 °F 35.2 °F 35% 30.09 in 10.0 mi Calm Calm - N/A   Clear
11:34 AM 64.6 °F 34.5 °F 33% 30.08 in 10.0 mi Calm Calm - N/A   Clear
11:54 AM 66.0 °F 33.8 °F 30% 30.08 in 10.0 mi SSW 3.5 mph - N/A   Clear
12:13 PM 66.7 °F 33.3 °F 29% 30.07 in 10.0 mi Calm Calm - N/A   Clear
12:34 PM 67.1 °F 34.0 °F 29% 30.07 in 10.0 mi SSE 3.5 mph - N/A   Clear
12:54 PM 67.6 °F 34.5 °F 29% 30.06 in 10.0 mi SW 4.6 mph - N/A   Clear
1:14 PM 67.8 °F 35.2 °F 30% 30.05 in 10.0 mi SSE 4.6 mph - N/A   Clear
1:34 PM 68.5 °F 36.3 °F 31% 30.04 in 10.0 mi South 6.9 mph - N/A   Clear
1:54 PM 68.9 °F 34.3 °F 28% 30.03 in 10.0 mi SSE 8.1 mph - N/A   Clear
2:14 PM 69.3 °F 32.4 °F 26% 30.02 in 10.0 mi SSW 5.8 mph - N/A   Clear
2:33 PM 70.2 °F 32.9 °F 25% 30.02 in 10.0 mi South 9.2 mph - N/A   Clear
2:53 PM 70.0 °F 32.9 °F 25% 30.01 in 10.0 mi SW 6.9 mph - N/A   Clear
3:14 PM 71.1 °F 32.4 °F 24% 30.00 in 10.0 mi SSW 6.9 mph - N/A   Clear
3:34 PM 70.9 °F 32.2 °F 24% 29.99 in 10.0 mi South 5.8 mph - N/A   Clear
3:53 PM 71.2 °F 33.1 °F 25% 29.98 in 10.0 mi South 3.5 mph - N/A   Clear
4:14 PM 71.6 °F 32.9 °F 24% 29.97 in 10.0 mi SSE 6.9 mph - N/A   Clear
4:34 PM 71.8 °F 32.7 °F 24% 29.96 in 10.0 mi SSE 4.6 mph - N/A   Clear
4:54 PM 71.6 °F 31.8 °F 23% 29.96 in 10.0 mi South 5.8 mph - N/A   Clear
5:14 PM 72.1 °F 31.5 °F 22% 29.95 in 10.0 mi South 8.1 mph - N/A   Clear
5:34 PM 72.1 °F 32.0 °F 23% 29.94 in 10.0 mi South 5.8 mph - N/A   Clear
5:54 PM 72.0 °F 31.5 °F 22% 29.94 in 10.0 mi South 9.2 mph - N/A   Clear
6:14 PM 72.0 °F 32.5 °F 23% 29.94 in 10.0 mi South 6.9 mph - N/A   Clear
6:34 PM 71.4 °F 31.6 °F 23% 29.92 in 10.0 mi South 4.6 mph - N/A   Clear
6:54 PM 70.7 °F 34.5 °F 26% 29.92 in 10.0 mi South 5.8 mph - N/A   Clear
7:14 PM 69.8 °F 36.3 °F 29% 29.92 in 10.0 mi South 5.8 mph - N/A   Clear
7:33 PM 68.2 °F 37.9 °F 33% 29.91 in 10.0 mi South 3.5 mph - N/A   Clear
7:54 PM 66.2 °F 39.2 °F 37% 29.91 in 10.0 mi Calm Calm - N/A   Clear
8:14 PM 62.8 °F 40.3 °F 44% 29.91 in 10.0 mi Calm Calm - N/A   Clear
8:34 PM 58.6 °F 45.0 °F 60% 29.91 in 10.0 mi Calm Calm - N/A   Clear
8:53 PM 58.5 °F 39.4 °F 49% 29.91 in 10.0 mi ESE 5.8 mph - N/A   Clear
9:14 PM 59.2 °F 40.1 °F 49% 29.90 in 10.0 mi SSE 4.6 mph - N/A   Clear
9:34 PM 58.5 °F 43.9 °F 58% 29.91 in 10.0 mi South 4.6 mph - N/A   Clear
9:54 PM 57.2 °F 45.3 °F 65% 29.90 in 10.0 mi SSE 4.6 mph - N/A   Clear
10:13 PM 57.4 °F 45.9 °F 65% 29.90 in 10.0 mi South 8.1 mph - N/A   Clear
10:34 PM 57.4 °F 46.2 °F 66% 29.90 in 10.0 mi South 6.9 mph - N/A   Clear
10:54 PM 55.8 °F 46.2 °F 70% 29.89 in 10.0 mi SSE 3.5 mph - N/A   Clear
11:13 PM 55.6 °F 45.9 °F 70% 29.89 in 10.0 mi SSE 4.6 mph - N/A   Clear
11:34 PM 54.9 °F 45.5 °F 71% 29.88 in 10.0 mi SSE 3.5 mph - N/A   Clear
11:54 PM 54.0 °F 45.1 °F 72% 29.88 in 10.0 mi SSE 5.8 mph - N/A   Clear